{"data":{"norad_id":53061,"epoch":"2026-05-25T00:39:23.874624Z","epoch_age_seconds":66679,"freshness":"FRESH","line1":"1 53061U 22077U   26145.02735966 -.00001269  00000+0 -83904-4 0  9996","line2":"2 53061  97.4499 324.9551 0001572  98.5772 261.5633 15.05652679212390","mean_motion":15.05652679,"eccentricity":0.0001572,"inclination_deg":97.4499,"raan_deg":324.9551,"arg_perigee_deg":98.5772,"mean_anomaly_deg":261.5633,"bstar":-8.3904e-5,"rev_number":21239,"period_min":95.639586744295,"perigee_km":548.41391148638,"apogee_km":550.59196148241,"semimajor_km":6927.6399364844,"source":"CELESTRAK","updated_at":"2026-05-25T13:38:17.309340Z"}}